QPF
0.00 0.00 0.00 0.00 0.00 0.00 0.00 0.00 0.00 0.00 0.00 0.00 0.00 0.00 0.00 0.00 0.00 0.00 0.00 0.00 0.00 0.00 0.00 0.00 0.00 0.01 0.01 0.01 0.03 0.04 0.06 0.09 0.11 0.13 0.12 0.09 0.05 0.02 0.01 0.01 0.01 0.00 0.00 0.00
0.00 0.00 0.00 0.00 0.00 0.00 0.00 0.00 0.00 0.00 0.00 0.00 0.00 0.00 0.00 0.00 0.00 0.00 0.00 0.00 0.00 0.00 0.00 0.01 0.03 0.05 0.05 0.05 0.08 0.14 0.20 0.24 0.24 0.20 0.16 0.12 0.07 0.04 0.03 0.02 0.01 0.00 0.00 0.00
0.00 0.00 0.00 0.00 0.00 0.00 0.00 0.00 0.00 0.00 0.00 0.00 0.00 0.00 0.00 0.00 0.00 0.00 0.00 0.00 0.01 0.01 0.01 0.03 0.10 0.13 0.10 0.10 0.15 0.21 0.26 0.27 0.24 0.18 0.14 0.11 0.08 0.05 0.03 0.01 0.00 0.00 0.00 0.00
0.00 0.00 0.00 0.00 0.00 0.00 0.00 0.00 0.00 0.00 0.00 0.00 0.00 0.00 0.00 0.00 0.00 0.00 0.01 0.02 0.02 0.01 0.01 0.03 0.08 0.10 0.10 0.12 0.15 0.19 0.22 0.24 0.23 0.19 0.13 0.09 0.05 0.03 0.01 0.00 0.00 0.00 0.00 0.00
0.00 0.00 0.00 0.00 0.00 0.00 0.00 0.00 0.00 0.00 0.00 0.00 0.00 0.00 0.00 0.00 0.00 0.01 0.02 0.02 0.02 0.02 0.02 0.02 0.03 0.05 0.07 0.09 0.13 0.17 0.20 0.20 0.18 0.15 0.11 0.08 0.04 0.02 0.01 0.00 0.00 0.00 0.00 0.00
0.00 0.01 0.00 0.00 0.00 0.00 0.00 0.00 0.00 0.00 0.00 0.01 0.04 0.08 0.03 0.00 0.01 0.01 0.02 0.01 0.01 0.01 0.02 0.02 0.03 0.05 0.05 0.06 0.08 0.12 0.14 0.13 0.10 0.07 0.06 0.04 0.01 0.00 0.00 0.00 0.00 0.00 0.00 0.00
0.00 0.00 0.00 0.00 0.00 0.00 0.00 0.00 0.00 0.00 0.01 0.04 0.09 0.10 0.03 0.01 0.02 0.02 0.01 0.01 0.01 0.02 0.03 0.04 0.05 0.05 0.03 0.04 0.06 0.07 0.06 0.05 0.03 0.02 0.02 0.01 0.00 0.00 0.00 0.00 0.01 0.01 0.00 0.00
0.00 0.00 0.00 0.00 0.00 0.00 0.00 0.00 0.00 0.01 0.02 0.05 0.04 0.01 0.01 0.01 0.01 0.01 0.01 0.01 0.02 0.03 0.04 0.06 0.05 0.03 0.02 0.03 0.04 0.03 0.02 0.02 0.01 0.00 0.00 0.00 0.00 0.00 0.00 0.00 0.00 0.00 0.00 0.00
0.00 0.00 0.00 0.00 0.00 0.00 0.00 0.01 0.02 0.04 0.04 0.06 0.05 0.02 0.01 0.01 0.01 0.01 0.01 0.02 0.03 0.05 0.06 0.05 0.03 0.01 0.01 0.01 0.01 0.01 0.00 0.00 0.00 0.00 0.00 0.00 0.00 0.00 0.00 0.00 0.00 0.00 0.00 0.00
0.00 0.00 0.00 0.00 0.00 0.00 0.00 0.01 0.02 0.02 0.05 0.07 0.06 0.03 0.02 0.01 0.01 0.01 0.01 0.03 0.05 0.06 0.04 0.03 0.01 0.00 0.00 0.00 0.00 0.00 0.00 0.00 0.00 0.00 0.00 0.00 0.00 0.00 0.00 0.00 0.00 0.00 0.00 0.00
0.00 0.00 0.00 0.00 0.00 0.00 0.00 0.00 0.01 0.01 0.02 0.04 0.04 0.03 0.02 0.01 0.01 0.02 0.03 0.04 0.04 0.04 0.03 0.02 0.00 0.00 0.00 0.00 0.00 0.00 0.00 0.00 0.00 0.00 0.00 0.00 0.00 0.00 0.00 0.00 0.00 0.00 0.00 0.00
0.00 0.00 0.00 0.00 0.00 0.00 0.01 0.02 0.03 0.03 0.02 0.01 0.02 0.02 0.02 0.02 0.02 0.02 0.03 0.03 0.03 0.03 0.01 0.00 0.00 0.00 0.00 0.00 0.00 0.00 0.00 0.00 0.00 0.00 0.00 0.00 0.00 0.00 0.00 0.00 0.00 0.00 0.00 0.00
0.00 0.00 0.00 0.00 0.00 0.00 0.01 0.03 0.04 0.04 0.03 0.02 0.01 0.02 0.02 0.02 0.02 0.02 0.02 0.02 0.02 0.01 0.00 0.00 0.00 0.00 0.00 0.00 0.00 0.00 0.00 0.00 0.00 0.00 0.00 0.00 0.00 0.00 0.00 0.00 0.00 0.00 0.00 0.00
0.00 0.00 0.00 0.00 0.00 0.00 0.01 0.02 0.03 0.03 0.02 0.01 0.01 0.01 0.01 0.01 0.01 0.01 0.02 0.02 0.01 0.01 0.00 0.00 0.00 0.00 0.00 0.00 0.00 0.00 0.00 0.00 0.00 0.00 0.00 0.00 0.00 0.00 0.00 0.00 0.00 0.00 0.00 0.00
0.00 0.00 0.00 0.00 0.00 0.01 0.01 0.02 0.01 0.01 0.01 0.00 0.00 0.00 0.01 0.01 0.01 0.02 0.02 0.01 0.01 0.00 0.00 0.00 0.00 0.00 0.00 0.00 0.00 0.00 0.00 0.00 0.00 0.00 0.00 0.00 0.00 0.00 0.00 0.00 0.00 0.00 0.00 0.00
0.00 0.00 0.00 0.00 0.00 0.01 0.01 0.01 0.01 0.01 0.00 0.00 0.00 0.01 0.01 0.01 0.01 0.01 0.00 0.00 0.00 0.00 0.00 0.00 0.00 0.00 0.00 0.00 0.00 0.00 0.00 0.00 0.00 0.00 0.00 0.00 0.00 0.00 0.00 0.00 0.00 0.00 0.00 0.00
0.00 0.00 0.00 0.00 0.00 0.01 0.01 0.01 0.01 0.00 0.00 0.00 0.00 0.00 0.00 0.00 0.00 0.00 0.00 0.00 0.00 0.00 0.00 0.00 0.00 0.00 0.00 0.00 0.00 0.00 0.00 0.00 0.00 0.00 0.00 0.00 0.00 0.00 0.00 0.00 0.00 0.00 0.00 0.00
0.00 0.00 0.00 0.01 0.01 0.02 0.01 0.01 0.00 0.00 0.00 0.00 0.00 0.00 0.00 0.00 0.00 0.00 0.00 0.00 0.00 0.00 0.00 0.00 0.01 0.00 0.00 0.00 0.00 0.00 0.00 0.00 0.00 0.00 0.00 0.00 0.00 0.00 0.00 0.00 0.00 0.00 0.00 0.00
0.00 0.00 0.00 0.01 0.01 0.01 0.01 0.00 0.00 0.00 0.00 0.00 0.00 0.00 0.00 0.00 0.00 0.00 0.00 0.00 0.00 0.00 0.00 0.00 0.01 0.00 0.00 0.00 0.00 0.00 0.00 0.00 0.00 0.00 0.00 0.00 0.00 0.00 0.00 0.00 0.00 0.00 0.00 0.00
0.00 0.00 0.00 0.01 0.01 0.01 0.00 0.00 0.00 0.00 0.00 0.00 0.00 0.00 0.00 0.00 0.00 0.00 0.00 0.00 0.00 0.01 0.00 0.01 0.01 0.01 0.00 0.00 0.00 0.00 0.00 0.00 0.00 0.00 0.00 0.00 0.00 0.00 0.00 0.00 0.00 0.00 0.00 0.00
0.00 0.00 0.01 0.01 0.01 0.00 0.00 0.00 0.00 0.00 0.00 0.00 0.00 0.00 0.00 0.00 0.00 0.00 0.00 0.00 0.00 0.01 0.00 0.00 0.01 0.03 0.01 0.00 0.00 0.00 0.00 0.00 0.00 0.00 0.00 0.00 0.00 0.00 0.00 0.00 0.00 0.00 0.00 0.00
0.00 0.00 0.01 0.01 0.01 0.00 0.00 0.00 0.00 0.00 0.00 0.00 0.00 0.00 0.00 0.00 0.00 0.00 0.00 0.00 0.00 0.01 0.00 0.00 0.03 0.05 0.01 0.00 0.00 0.00 0.00 0.00 0.00 0.00 0.00 0.00 0.00 0.00 0.00 0.00 0.00 0.00 0.00 0.00
0.00 0.01 0.02 0.01 0.00 0.00 0.00 0.00 0.00 0.00 0.00 0.00 0.00 0.00 0.00 0.00 0.00 0.00 0.00 0.00 0.00 0.01 0.00 0.00 0.03 0.03 0.01 0.00 0.00 0.00 0.00 0.00 0.00 0.00 0.00 0.00 0.00 0.00 0.00 0.00 0.00 0.00 0.00 0.00
0.02 0.02 0.02 0.01 0.00 0.00 0.00 0.00 0.00 0.00 0.00 0.00 0.00 0.00 0.00 0.00 0.00 0.00 0.00 0.00 0.01 0.01 0.00 0.00 0.01 0.01 0.00 0.00 0.00 0.00 0.00 0.00 0.00 0.00 0.00 0.00 0.00 0.00 0.00 0.00 0.00 0.00 0.00 0.00
0.02 0.02 0.01 0.00 0.00 0.00 0.00 0.00 0.00 0.00 0.00 0.00 0.00 0.00 0.00 0.00 0.00 0.00 0.00 0.00 0.00 0.00 0.00 0.00 0.00 0.00 0.00 0.00 0.00 0.00 0.00 0.00 0.00 0.00 0.00 0.00 0.00 0.00 0.00 0.00 0.00 0.00 0.00 0.00
0.02 0.02 0.01 0.00 0.00 0.00 0.00 0.00 0.00 0.00 0.00 0.00 0.00 0.00 0.00 0.00 0.00 0.00 0.00 0.00 0.00 0.00 0.00 0.00 0.00 0.00 0.00 0.00 0.00 0.00 0.00 0.00 0.00 0.00 0.00 0.00 0.00 0.00 0.00 0.00 0.00 0.00 0.00 0.00
0.02 0.01 0.00 0.00 0.00 0.00 0.00 0.00 0.00 0.00 0.00 0.00 0.00 0.00 0.00 0.00 0.00 0.00 0.00 0.00 0.00 0.00 0.00 0.00 0.00 0.00 0.00 0.00 0.00 0.00 0.00 0.00 0.00 0.00 0.00 0.00 0.00 0.01 0.01 0.01 0.02 0.01 0.01 0.01
MSLP
1023.52 1023.28 1023.07 1022.88 1022.70 1022.52 1022.32 1022.07 1021.78 1021.42 1020.99 1020.50 1019.94 1019.33 1018.66 1017.96 1017.22 1016.48 1015.75 1015.05 1014.43 1013.91 1013.49 1013.20 1013.03 1012.95 1012.94 1012.97 1012.97 1012.94 1012.83 1012.65 1012.40 1012.10 1011.79 1011.50 1011.27 1011.11 1011.04 1011.05 1011.12 1011.23 1011.36 1011.48
1024.15 1023.90 1023.68 1023.48 1023.30 1023.13 1022.95 1022.72 1022.44 1022.09 1021.65 1021.12 1020.50 1019.80 1019.04 1018.23 1017.41 1016.59 1015.82 1015.11 1014.51 1014.03 1013.69 1013.49 1013.41 1013.43 1013.50 1013.59 1013.65 1013.65 1013.56 1013.38 1013.12 1012.80 1012.46 1012.15 1011.88 1011.69 1011.58 1011.57 1011.62 1011.73 1011.86 1011.99
1024.77 1024.49 1024.23 1023.99 1023.78 1023.59 1023.40 1023.17 1022.90 1022.55 1022.11 1021.57 1020.93 1020.21 1019.41 1018.57 1017.71 1016.88 1016.10 1015.42 1014.86 1014.44 1014.17 1014.04 1014.03 1014.11 1014.23 1014.36 1014.43 1014.43 1014.34 1014.14 1013.86 1013.52 1013.15 1012.81 1012.52 1012.31 1012.19 1012.16 1012.20 1012.30 1012.43 1012.57
1025.32 1025.00 1024.68 1024.38 1024.12 1023.88 1023.66 1023.42 1023.15 1022.82 1022.41 1021.90 1021.28 1020.58 1019.81 1018.99 1018.16 1017.36 1016.62 1015.98 1015.47 1015.11 1014.90 1014.81 1014.84 1014.94 1015.07 1015.19 1015.24 1015.22 1015.09 1014.86 1014.54 1014.18 1013.80 1013.45 1013.15 1012.93 1012.81 1012.77 1012.81 1012.90 1013.01 1013.13
1025.77 1025.38 1025.00 1024.63 1024.30 1024.02 1023.77 1023.53 1023.28 1022.98 1022.62 1022.17 1021.63 1021.00 1020.30 1019.55 1018.79 1018.05 1017.38 1016.79 1016.34 1016.01 1015.82 1015.75 1015.77 1015.85 1015.95 1016.01 1016.02 1015.93 1015.75 1015.48 1015.14 1014.76 1014.37 1014.01 1013.72 1013.51 1013.39 1013.35 1013.38 1013.45 1013.54 1013.63
1026.08 1025.64 1025.18 1024.76 1024.38 1024.07 1023.81 1023.58 1023.37 1023.13 1022.85 1022.50 1022.06 1021.53 1020.93 1020.29 1019.61 1018.96 1018.35 1017.82 1017.39 1017.08 1016.89 1016.79 1016.76 1016.78 1016.80 1016.78 1016.71 1016.55 1016.31 1015.99 1015.62 1015.23 1014.84 1014.50 1014.22 1014.02 1013.91 1013.87 1013.89 1013.94 1013.99 1014.04
1026.24 1025.75 1025.25 1024.79 1024.40 1024.09 1023.85 1023.67 1023.52 1023.37 1023.19 1022.95 1022.63 1022.23 1021.75 1021.21 1020.64 1020.06 1019.50 1019.01 1018.60 1018.27 1018.04 1017.88 1017.77 1017.69 1017.60 1017.48 1017.31 1017.07 1016.76 1016.40 1016.01 1015.61 1015.23 1014.91 1014.66 1014.48 1014.37 1014.33 1014.33 1014.35 1014.37 1014.37
1026.24 1025.73 1025.23 1024.78 1024.41 1024.14 1023.97 1023.86 1023.81 1023.77 1023.70 1023.58 1023.39 1023.11 1022.74 1022.30 1021.81 1021.30 1020.79 1020.31 1019.89 1019.52 1019.22 1018.97 1018.76 1018.57 1018.36 1018.13 1017.85 1017.53 1017.16 1016.76 1016.35 1015.95 1015.59 1015.29 1015.06 1014.90 1014.80 1014.76 1014.74 1014.73 1014.70 1014.66
1026.12 1025.62 1025.15 1024.76 1024.46 1024.28 1024.20 1024.20 1024.26 1024.33 1024.38 1024.38 1024.30 1024.13 1023.85 1023.50 1023.07 1022.60 1022.12 1021.64 1021.19 1020.77 1020.39 1020.05 1019.73 1019.42 1019.10 1018.75 1018.38 1017.98 1017.55 1017.12 1016.70 1016.31 1015.97 1015.69 1015.48 1015.33 1015.24 1015.18 1015.14 1015.09 1015.03 1014.93
1025.91 1025.46 1025.06 1024.76 1024.57 1024.51 1024.55 1024.68 1024.85 1025.04 1025.20 1025.29 1025.30 1025.20 1025.00 1024.70 1024.32 1023.88 1023.41 1022.92 1022.44 1021.97 1021.52 1021.09 1020.67 1020.26 1019.83 1019.39 1018.94 1018.48 1018.01 1017.55 1017.12 1016.74 1016.41 1016.14 1015.94 1015.80 1015.70 1015.62 1015.55 1015.47 1015.36 1015.22
1025.66 1025.29 1025.00 1024.82 1024.78 1024.85 1025.02 1025.27 1025.55 1025.83 1026.06 1026.22 1026.28 1026.23 1026.07 1025.81 1025.45 1025.03 1024.57 1024.07 1023.57 1023.06 1022.56 1022.06 1021.57 1021.08 1020.58 1020.07 1019.56 1019.05 1018.55 1018.07 1017.64 1017.25 1016.93 1016.66 1016.46 1016.30 1016.18 1016.07 1015.97 1015.85 1015.70 1015.52
1025.43 1025.16 1025.00 1024.97 1025.06 1025.27 1025.57 1025.92 1026.28 1026.62 1026.90 1027.08 1027.16 1027.13 1026.98 1026.73 1026.39 1025.99 1025.53 1025.04 1024.53 1024.01 1023.48 1022.95 1022.41 1021.87 1021.32 1020.77 1020.22 1019.68 1019.15 1018.67 1018.22 1017.83 1017.50 1017.23 1017.00 1016.82 1016.66 1016.52 1016.37 1016.21 1016.02 1015.80
1025.27 1025.12 1025.10 1025.21 1025.44 1025.77 1026.16 1026.58 1026.99 1027.35 1027.63 1027.81 1027.88 1027.84 1027.69 1027.44 1027.11 1026.71 1026.27 1025.80 1025.30 1024.78 1024.25 1023.71 1023.16 1022.59 1022.02 1021.45 1020.88 1020.32 1019.79 1019.29 1018.84 1018.44 1018.09 1017.79 1017.53 1017.31 1017.11 1016.91 1016.72 1016.50 1016.27 1016.01
1025.22 1025.20 1025.31 1025.55 1025.90 1026.32 1026.78 1027.23 1027.65 1028.00 1028.25 1028.40 1028.43 1028.36 1028.19 1027.93 1027.61 1027.23 1026.81 1026.36 1025.89 1025.39 1024.87 1024.34 1023.79 1023.22 1022.65 1022.06 1021.49 1020.92 1020.38 1019.88 1019.42 1019.00 1018.62 1018.29 1018.00 1017.72 1017.47 1017.22 1016.96 1016.69 1016.40 1016.11
1025.30 1025.40 1025.64 1026.00 1026.43 1026.92 1027.41 1027.87 1028.26 1028.57 1028.77 1028.86 1028.84 1028.73 1028.53 1028.27 1027.95 1027.58 1027.19 1026.77 1026.32 1025.85 1025.35 1024.83 1024.28 1023.72 1023.15 1022.57 1021.99 1021.43 1020.89 1020.38 1019.90 1019.47 1019.07 1018.70 1018.36 1018.04 1017.72 1017.40 1017.08 1016.75 1016.42 1016.08
1025.51 1025.74 1026.09 1026.53 1027.04 1027.56 1028.06 1028.49 1028.84 1029.09 1029.22 1029.26 1029.18 1029.03 1028.81 1028.53 1028.21 1027.85 1027.47 1027.07 1026.64 1026.18 1025.69 1025.18 1024.64 1024.08 1023.50 1022.93 1022.35 1021.80 1021.26 1020.76 1020.28 1019.83 1019.41 1019.01 1018.62 1018.24 1017.86 1017.48 1017.10 1016.71 1016.32 1015.94
1025.83 1026.17 1026.62 1027.14 1027.69 1028.23 1028.71 1029.11 1029.41 1029.59 1029.67 1029.64 1029.52 1029.32 1029.07 1028.78 1028.46 1028.11 1027.73 1027.33 1026.90 1026.44 1025.94 1025.42 1024.87 1024.30 1023.73 1023.15 1022.59 1022.04 1021.52 1021.02 1020.55 1020.09 1019.66 1019.23 1018.80 1018.37 1017.93 1017.49 1017.05 1016.60 1016.16 1015.74
1026.21 1026.66 1027.19 1027.78 1028.36 1028.90 1029.36 1029.72 1029.97 1030.10 1030.12 1030.04 1029.88 1029.66 1029.39 1029.08 1028.75 1028.38 1028.00 1027.58 1027.13 1026.65 1026.13 1025.58 1025.01 1024.43 1023.84 1023.27 1022.71 1022.18 1021.68 1021.19 1020.73 1020.28 1019.84 1019.39 1018.93 1018.46 1017.97 1017.47 1016.97 1016.47 1015.98 1015.52
1026.61 1027.16 1027.77 1028.40 1029.00 1029.54 1029.97 1030.30 1030.51 1030.60 1030.58 1030.47 1030.29 1030.04 1029.76 1029.44 1029.09 1028.70 1028.29 1027.84 1027.36 1026.83 1026.28 1025.69 1025.09 1024.49 1023.90 1023.33 1022.78 1022.27 1021.78 1021.32 1020.88 1020.44 1019.99 1019.52 1019.04 1018.52 1017.99 1017.44 1016.89 1016.34 1015.81 1015.32
1026.99 1027.63 1028.30 1028.96 1029.57 1030.10 1030.52 1030.82 1030.99 1031.05 1031.01 1030.89 1030.69 1030.44 1030.14 1029.81 1029.44 1029.04 1028.60 1028.11 1027.58 1027.01 1026.41 1025.79 1025.16 1024.54 1023.94 1023.37 1022.83 1022.34 1021.87 1021.43 1020.99 1020.56 1020.10 1019.62 1019.10 1018.55 1017.97 1017.38 1016.78 1016.19 1015.64 1015.12
1027.35 1028.05 1028.76 1029.44 1030.05 1030.56 1030.96 1031.23 1031.38 1031.43 1031.37 1031.24 1031.04 1030.79 1030.50 1030.16 1029.78 1029.35 1028.88 1028.36 1027.79 1027.18 1026.54 1025.89 1025.23 1024.60 1023.99 1023.42 1022.89 1022.40 1021.94 1021.50 1021.06 1020.61 1020.14 1019.62 1019.07 1018.48 1017.86 1017.22 1016.59 1015.97 1015.39 1014.87
1027.67 1028.41 1029.14 1029.82 1030.42 1030.90 1031.27 1031.52 1031.65 1031.68 1031.63 1031.49 1031.30 1031.06 1030.77 1030.43 1030.04 1029.60 1029.11 1028.56 1027.97 1027.33 1026.67 1025.99 1025.33 1024.68 1024.06 1023.49 1022.95 1022.45 1021.97 1021.51 1021.03 1020.54 1020.02 1019.45 1018.84 1018.19 1017.53 1016.85 1016.19 1015.56 1014.98 1014.46
1027.98 1028.74 1029.46 1030.12 1030.68 1031.13 1031.46 1031.68 1031.79 1031.81 1031.75 1031.62 1031.44 1031.21 1030.93 1030.60 1030.21 1029.77 1029.28 1028.72 1028.11 1027.47 1026.79 1026.11 1025.43 1024.77 1024.14 1023.54 1022.97 1022.43 1021.90 1021.37 1020.82 1020.25 1019.64 1018.99 1018.30 1017.59 1016.88 1016.17 1015.49 1014.86 1014.30 1013.82
1028.29 1029.04 1029.74 1030.35 1030.86 1031.26 1031.55 1031.73 1031.82 1031.83 1031.77 1031.65 1031.48 1031.26 1030.99 1030.68 1030.31 1029.88 1029.39 1028.84 1028.23 1027.59 1026.92 1026.23 1025.54 1024.85 1024.19 1023.54 1022.91 1022.29 1021.66 1021.02 1020.36 1019.66 1018.93 1018.17 1017.38 1016.59 1015.82 1015.08 1014.40 1013.79 1013.27 1012.85
1028.62 1029.33 1029.98 1030.54 1030.99 1031.33 1031.57 1031.72 1031.78 1031.78 1031.72 1031.61 1031.45 1031.25 1031.00 1030.70 1030.35 1029.94 1029.47 1028.93 1028.34 1027.71 1027.04 1026.34 1025.63 1024.91 1024.19 1023.46 1022.73 1021.99 1021.22 1020.43 1019.60 1018.74 1017.86 1016.96 1016.05 1015.17 1014.34 1013.58 1012.91 1012.34 1011.88 1011.54
1028.94 1029.61 1030.19 1030.68 1031.07 1031.37 1031.56 1031.68 1031.73 1031.72 1031.66 1031.56 1031.42 1031.24 1031.01 1030.73 1030.40 1030.01 1029.55 1029.04 1028.46 1027.83 1027.15 1026.44 1025.69 1024.92 1024.11 1023.28 1022.41 1021.51 1020.57 1019.59 1018.57 1017.52 1016.46 1015.40 1014.38 1013.41 1012.52 1011.74 1011.09 1010.58 1010.21 1009.98
1029.24 1029.84 1030.36 1030.80 1031.13 1031.38 1031.55 1031.66 1031.70 1031.69 1031.65 1031.57 1031.44 1031.28 1031.07 1030.81 1030.50 1030.12 1029.68 1029.17 1028.60 1027.96 1027.27 1026.52 1025.72 1024.86 1023.96 1022.99 1021.97 1020.90 1019.76 1018.58 1017.35 1016.11 1014.87 1013.66 1012.51 1011.45 1010.52 1009.74 1009.12 1008.68 1008.41 1008.29
Thickness
5529 5524 5514 5507 5505 5490 5470 5460 5451 5452 5439 5436 5430 5419 5414 5412 5411 5410 5408 5403 5395 5385 5377 5373 5371 5370 5363 5359 5356 5354 5354 5355 5361 5369 5381 5390 5396 5399 5401 5404 5405 5403 5402 5401
5510 5501 5491 5494 5491 5474 5457 5441 5429 5422 5424 5422 5415 5406 5400 5400 5397 5396 5392 5384 5372 5361 5355 5355 5356 5358 5351 5346 5343 5341 5341 5342 5346 5354 5364 5372 5379 5385 5389 5391 5391 5390 5387 5386
5505 5487 5480 5490 5476 5459 5444 5428 5410 5402 5400 5401 5401 5393 5387 5387 5388 5381 5371 5361 5352 5344 5340 5343 5347 5347 5340 5335 5333 5332 5331 5333 5337 5343 5351 5358 5366 5372 5376 5378 5377 5376 5374 5372
5476 5469 5455 5475 5449 5439 5426 5418 5408 5402 5393 5384 5382 5380 5379 5384 5376 5366 5358 5350 5344 5339 5337 5339 5339 5333 5328 5326 5325 5325 5324 5325 5328 5333 5340 5348 5354 5358 5361 5363 5362 5361 5359 5359
5451 5453 5457 5454 5434 5416 5406 5408 5406 5391 5382 5377 5376 5376 5385 5379 5362 5355 5351 5346 5342 5339 5336 5332 5326 5322 5320 5319 5318 5318 5317 5318 5321 5326 5333 5338 5342 5344 5347 5348 5347 5346 5345 5346
5433 5422 5426 5438 5416 5398 5391 5403 5397 5379 5370 5360 5358 5366 5376 5365 5357 5354 5351 5346 5341 5335 5328 5321 5316 5313 5312 5311 5311 5310 5311 5312 5315 5320 5325 5328 5331 5333 5334 5334 5332 5332 5333 5333
5425 5409 5417 5418 5394 5387 5381 5383 5379 5370 5356 5343 5339 5341 5348 5352 5350 5345 5341 5336 5328 5319 5313 5309 5306 5305 5303 5302 5301 5302 5304 5306 5308 5312 5316 5318 5321 5321 5321 5320 5320 5321 5322 5323
5411 5394 5397 5400 5386 5378 5375 5373 5365 5353 5339 5331 5332 5335 5338 5337 5333 5328 5325 5320 5313 5307 5300 5296 5295 5296 5296 5294 5294 5297 5299 5300 5301 5302 5304 5307 5308 5309 5308 5308 5309 5310 5311 5312
5411 5407 5407 5390 5379 5374 5366 5359 5349 5335 5326 5321 5321 5322 5322 5320 5315 5310 5307 5305 5300 5296 5291 5288 5287 5288 5288 5286 5287 5289 5291 5291 5292 5292 5292 5294 5296 5296 5295 5295 5296 5298 5300 5301
5397 5399 5393 5384 5377 5368 5357 5343 5332 5322 5315 5309 5307 5308 5308 5306 5300 5295 5291 5288 5285 5283 5282 5280 5280 5279 5278 5277 5278 5279 5279 5279 5280 5280 5280 5281 5282 5282 5281 5281 5281 5283 5285 5286
5386 5387 5383 5379 5370 5358 5344 5331 5322 5316 5308 5301 5298 5298 5294 5291 5285 5281 5277 5274 5271 5270 5270 5270 5269 5268 5267 5266 5266 5267 5267 5266 5265 5265 5266 5267 5267 5266 5265 5265 5264 5265 5266 5266
5388 5384 5374 5369 5360 5345 5329 5320 5312 5307 5302 5296 5290 5287 5284 5278 5272 5268 5264 5261 5259 5258 5257 5256 5255 5253 5252 5251 5252 5252 5253 5252 5251 5250 5250 5251 5251 5252 5250 5247 5248 5248 5247 5247
5376 5373 5363 5355 5345 5330 5319 5311 5304 5299 5293 5288 5284 5279 5274 5268 5263 5258 5254 5251 5248 5246 5245 5243 5241 5239 5238 5236 5236 5236 5236 5236 5236 5235 5234 5234 5234 5234 5234 5234 5231 5230 5229 5228
5364 5359 5351 5343 5333 5321 5311 5303 5298 5293 5286 5282 5277 5271 5265 5259 5254 5248 5243 5240 5237 5234 5232 5230 5228 5226 5224 5222 5222 5222 5221 5221 5220 5219 5217 5216 5216 5215 5214 5214 5214 5214 5212 5210
5361 5351 5342 5333 5324 5314 5305 5297 5292 5286 5279 5274 5268 5261 5256 5250 5244 5239 5234 5230 5227 5223 5219 5217 5215 5214 5212 5210 5209 5208 5207 5206 5205 5203 5201 5198 5197 5196 5195 5193 5192 5191 5190 5189
5353 5343 5335 5327 5319 5308 5299 5292 5285 5279 5271 5264 5257 5251 5246 5242 5237 5232 5226 5221 5216 5212 5208 5205 5203 5202 5200 5198 5196 5194 5192 5189 5187 5185 5182 5179 5176 5174 5172 5169 5168 5167 5167 5166
5338 5338 5331 5323 5314 5303 5293 5284 5277 5269 5262 5255 5248 5242 5239 5235 5230 5223 5216 5210 5205 5202 5199 5196 5193 5190 5187 5184 5180 5177 5173 5170 5165 5162 5159 5155 5153 5150 5148 5145 5144 5143 5143 5141
5334 5325 5317 5310 5302 5293 5285 5275 5267 5260 5253 5247 5241 5237 5232 5226 5218 5210 5204 5200 5196 5193 5190 5185 5182 5176 5171 5166 5161 5156 5152 5147 5142 5137 5133 5129 5127 5123 5120 5118 5117 5116 5116 5114
5326 5318 5309 5302 5292 5284 5275 5265 5257 5250 5245 5240 5235 5228 5220 5213 5206 5201 5196 5191 5186 5182 5177 5172 5168 5160 5153 5146 5140 5133 5127 5121 5115 5110 5105 5101 5098 5096 5093 5092 5090 5088 5086 5085
5314 5307 5299 5290 5280 5272 5264 5258 5252 5245 5239 5232 5226 5219 5212 5204 5197 5191 5185 5181 5174 5168 5163 5158 5150 5142 5133 5124 5117 5109 5102 5096 5091 5086 5081 5077 5074 5071 5069 5067 5065 5062 5061 5060
5306 5298 5291 5283 5274 5266 5259 5252 5246 5239 5231 5225 5217 5208 5201 5195 5189 5182 5176 5171 5162 5156 5147 5139 5131 5123 5115 5106 5098 5091 5085 5080 5075 5070 5066 5063 5060 5057 5055 5053 5051 5048 5047 5045
5299 5293 5287 5279 5270 5260 5251 5244 5237 5231 5224 5217 5209 5201 5194 5187 5180 5173 5165 5156 5148 5141 5132 5123 5116 5111 5104 5096 5089 5084 5079 5074 5070 5066 5063 5059 5056 5054 5052 5050 5047 5045 5043 5040
5297 5290 5283 5273 5264 5252 5243 5236 5229 5223 5216 5209 5201 5194 5187 5179 5172 5164 5156 5145 5136 5130 5122 5114 5111 5107 5102 5095 5090 5085 5081 5077 5073 5069 5065 5062 5060 5057 5055 5053 5050 5048 5045 5041
5291 5282 5271 5261 5253 5246 5239 5230 5222 5216 5208 5201 5193 5185 5178 5172 5163 5153 5144 5136 5130 5126 5121 5116 5113 5111 5106 5100 5095 5091 5087 5083 5079 5076 5074 5072 5069 5066 5063 5061 5058 5055 5051 5046
5282 5271 5262 5255 5250 5244 5235 5225 5217 5211 5205 5197 5189 5181 5172 5162 5154 5146 5140 5135 5132 5130 5127 5123 5120 5117 5112 5107 5103 5099 5095 5091 5087 5085 5084 5081 5078 5076 5074 5071 5067 5063 5059 5054
5277 5269 5261 5254 5247 5239 5231 5224 5217 5209 5201 5193 5183 5174 5165 5156 5150 5146 5143 5141 5138 5136 5134 5131 5127 5124 5120 5116 5113 5109 5106 5103 5100 5096 5094 5092 5091 5089 5086 5082 5078 5072 5068 5062
5272 5264 5257 5250 5242 5234 5227 5220 5212 5203 5195 5186 5177 5168 5160 5155 5153 5151 5149 5147 5145 5143 5141 5139 5136 5133 5130 5128 5125 5122 5119 5117 5114 5112 5110 5108 5105 5102 5099 5094 5088 5082 5076 5071